Miscellaneous Local Product
Issued by NWS Hastings, NE

Home | Current Version | Previous Version | Graphics & Text | Print | Product List | Glossary On
Versions: 1 2 3 4 5 6 7 8 9 10 11 12 13 14 15 16 17 18 19 20 21 22 23 24 25 26 27 28 29 30 31 32 33 34 35 36 37 38 39 40 41 42 43 44 45 46 47 48 49 50
000
AXUS43 KGID 141602
MISGRI

GID CWA HOURLY WEATHER ROUNDUP
NATIONAL WEATHER SERVICE HASTINGS NE
1000 AM CST SUN JAN 14 2018

NOTE: "FAIR" INDICATES FEW OR NO CLOUDS BELOW 12,000 FEET WITH NO
SIGNIFICANT WEATHER AND/OR OBSTRUCTIONS TO VISIBILITY.

...SOUTH CENTRAL NEBRASKA...

CITY           SKY/WX    TMP DP  RH WIND       PRES   REMARKS
GRAND ISLAND   MOSUNNY   22  18  85 W6        30.29R WCI  14
KEARNEY        SUNNY     24  20  84 W6        30.28R WCI  17
HASTINGS       SUNNY     21  17  84 SW7       30.28F WCI  12
ORD            MOSUNNY   18  14  84 CALM      30.23F
YORK           CLOUDY    19  19 100 SW7       30.30F WCI  10
AURORA         CLOUDY    20  19  96 SW7       30.28F FOG     WCI  11
LEXINGTON      SUNNY    N/A N/A N/A NW5       30.27S
HOLDREGE       SUNNY     25  23  92 W7        30.27S WCI  17
HEBRON         CLOUDY    23  19  86 SW6       30.34S WCI  16

...NEBRASKA PANHANDLE...

CITY           SKY/WX    TMP DP  RH WIND       PRES   REMARKS
CHADRON        CLOUDY    35  28  75 W13       30.23S WCI  26
ALLIANCE       MOSUNNY   31  28  89 W9        30.23S WCI  23
SCOTTSBLUFF    MOSUNNY   31  26  82 NW10      30.26S WCI  22
SIDNEY         SUNNY     34  28  79 W12       30.28S WCI  25

...WESTERN AND NORTH CENTRAL NEBRASKA...

CITY           SKY/WX    TMP DP  RH WIND       PRES   REMARKS
VALENTINE      CLOUDY    35  30  82 W12       30.15F WCI  27
AINSWORTH      CLOUDY    30  28  91 W13       30.15F WCI  20
ONEILL         CLOUDY    26  24  91 SW6       30.19F WCI  20
BROKEN BOW     MOSUNNY   28  23  81 W8        30.21F WCI  20
IMPERIAL       MOSUNNY   33  29  85 W10       30.28S WCI  25
NORTH PLATTE   MOSUNNY   27  22  81 NW6       30.25F WCI  20
MCCOOK         SUNNY     30  27  88 W5        30.30S WCI  25

...EASTERN NEBRASKA...

CITY           SKY/WX    TMP DP  RH WIND       PRES   REMARKS
NORFOLK        CLOUDY    18  17  96 SW13      30.22F WCI   5
SO SIOUX CITY  CLOUDY    17  14  88 S13       30.31R WCI   4
TEKAMAH        CLOUDY    19  14  81 S13       30.34F WCI   6
COLUMBUS       CLOUDY    20  16  84 SW9       30.30F WCI   9
ALBION         CLOUDY    21  18  88 SW3       30.25F
OMAHA EPPLEY   CLOUDY    19  14  81 S12       30.35F WCI   7
OFFUTT AFB     PTSUNNY   19  14  82 S9        30.35F WCI   8
MILLARD        CLOUDY    21  16  81 S8        30.35F WCI  11
LINCOLN        CLOUDY    21  16  81 SW10      30.35S WCI  10
NEBRASKA CITY  CLOUDY    19  18  95 S13       30.36S WCI   6
BEATRICE       CLOUDY    22  19  88 S10       30.35S WCI  11
FALLS CITY     CLOUDY    20  16  84 S12       30.40S WCI   8

...NORTHERN KANSAS...

CITY           SKY/WX    TMP DP  RH WIND       PRES   REMARKS
GOODLAND       SUNNY     36  31  82 W10       30.30F WCI  28
HILL CITY      SUNNY     36  30  79 NW7       30.33S WCI  30
NORTON         SUNNY     36  27  69 W8        30.30  WCI  29
PHILLIPSBURG   SUNNY     28  21  74 W5        30.34S WCI  23
SMITH CENTER   MOSUNNY   23  18  80 SW5       30.34S WCI  17
HAYS           SUNNY     31  26  82 NW7       30.35R WCI  24
RUSSELL        SUNNY    N/A N/A N/A NW8       30.33S
CONCORDIA      CLOUDY    25  19  78 W5        30.35R WCI  19
SALINA         CLOUDY    28  17  63 SW8       30.37S WCI  20
TOPEKA         CLOUDY    23  20  88 S8        30.42F WCI  14



USA.gov is the U.S. government's official web portal to all federal, state and local government web resources and services.